Regional Weather Roundup
Issued by NWS

Home | Current Version | Previous Version | Graphics & Text | Print | Product List | Glossary On
Versions: 1 2 3 4 5 6 7 8 9 10 11 12 13 14 15 16 17 18 19 20 21 22 23 24 25 26 27 28 29 30 31 32 33 34 35 36 37 38 39 40 41 42 43 44 45 46 47 48 49 50
000
ASUS45 KSLC 210510
RWRUT

UTAH REGIONAL WEATHER ROUNDUP
NATIONAL WEATHER SERVICE SALT LAKE CITY UT
1100 PM MDT SUN MAY 20 2018

UTZ001>011-023>025-210600-

NORTHERN UTAH

CITY           SKY/WX    TMP DP  RH WIND       PRES   REMARKS
BRIGHAM CITY   MOCLDY    62  42  48 SE6       29.92F
HILL AFB       MOCLDY    59  43  54 NE7       29.93S
LOGAN          MOCLDY    58  42  55 SE3       29.94S
OGDEN          MOCLDY    58  44  60 S3        29.92S
SALT LAKE CITY PTCLDY    61  48  62 S5        29.90F
TOOELE VALLEY  MOCLDY    54  48  82 S6        29.93R
WENDOVER       MOCLDY    63  43  48 NE5       29.90R
HEBER CITY       N/A     46  39  76 S3        29.99F
WEST JORDAN    PTCLDY    55  46  69 SW6       29.94S

$$

UTZ011>015-024>027-210600-

CENTRAL/NORTHEAST UTAH

CITY           SKY/WX    TMP DP  RH WIND       PRES   REMARKS
PROVO AIRPORT  PTCLDY    60  44  55 SE12        N/A
MOAB/CANYONLAN MOCLDY    68  33  27 NE21G28   29.89S
DELTA          CLOUDY    59  43  55 NE7       29.90S
PRICE          MOCLDY    53  41  63 NW7       30.01S
RICHFIELD      CLEAR     52  50  93 CALM      29.97R
ROOSEVELT      MOCLDY    52  45  76 W5        30.03S
VERNAL         MOCLDY    59  40  49 CALM      30.01F

$$

UTZ013>016-019>022-027-210600-

SOUTHERN UTAH

CITY           SKY/WX    TMP DP  RH WIND       PRES   REMARKS
BRYCE CANYON   CLEAR     38  35  89 W3        30.08R
CEDAR CITY     PTCLDY    57  28  33 SE7       29.93R
MILFORD        MOCLDY    60  36  40 CALM      29.90R
ST GEORGE      MOCLDY    74  26  16 SE3       29.78R
HANKSVILLE     MOCLDY    66  36  32 NE17G23   29.92S
KANAB          CLEAR     61  25  25 SE2       29.95R
BLANDING         N/A     56  15  19 N7        30.02S

$$

REGIONAL REPORTS     COLORADO/ARIZONA

CITY           SKY/WX    TMP DP  RH WIND       PRES   REMARKS
CRAIG, CO      PTCLDY    44  38  79 CALM      30.11S
GRAND JUNCTION PTCLDY    61  37  41 SW6       29.98R
RIFLE, CO      PTCLDY    49  41  74 S7        30.05F
MONTROSE, CO   MOCLDY    58  34  40 SE16      30.03S
CORTEZ, CO     MOCLDY    55  12  18 E7        29.98S
COLORADO CITY    N/A     59  28  31 CALM      29.94R
PAGE, AZ       PTCLDY    78  14   9 SW8       29.85R
GRAND CANYON   PTCLDY    45  10  24 NE3       30.05S
KINGMAN, AZ      N/A     67  29  24 S9        29.84R
FLAGSTAFF, AZ  MOCLDY    49  13  23 CALM      30.08R

$$

REGIONAL REPORTS    NEVADA/IDAHO/WYOMING

CITY           SKY/WX    TMP DP  RH WIND       PRES   REMARKS
LAS VEGAS, NV  CLOUDY    84  37  18 S9        29.69R
ELY, NY        RAIN      52  42  69 S9G22     30.03R
ELKO, NV       LGT RAIN  53  48  83 NE9       29.95F
POCATELLO, ID  MOCLDY    56  47  71 SW9       29.96R
BURLEY, ID     CLOUDY    59  51  75 N5        29.93S
FORT BRIDGER,    N/A     49  37  61 SE9       30.09F
EVANSTON, WY   MOCLDY    51  40  65 SE3       30.07S
ROCK SPRINGS,  CLOUDY    51  37  58 S7        30.08F
KEMMERER, WY   CLOUDY    46  36  66 N5        30.10S

$$



USA.gov is the U.S. government's official web portal to all federal, state and local government web resources and services.